Time+07,TemperatureF,Dew PointF,Humidity,Sea Level PressureIn,VisibilityMPH,Wind Direction,Wind SpeedMPH,Gust SpeedMPH,PrecipitationIn,Events,Conditions,WindDirDegrees,DateUTC
12:00 AM,80.6,75.2,84,29.92,5.6,WNW,4.6,-,N/A,,Mostly Cloudy,290,2013-09-02 17:00:00
12:30 AM,82.4,73.4,74,29.89,5.0,WNW,4.6,-,N/A,,Mostly Cloudy,290,2013-09-02 17:30:00
1:00 AM,83,76,74,29.87,5,WNW,5.8,,,Thunderstorm,Thunderstorm,290,2013-09-02 18:00:00
1:00 AM,82.4,73.4,74,29.89,4.3,WNW,6.9,-,N/A,Thunderstorm,Thunderstorm,300,2013-09-02 18:00:00
1:30 AM,80.6,73.4,79,29.89,5.0,NNW,4.6,-,N/A,,Mostly Cloudy,340,2013-09-02 18:30:00
2:00 AM,80.6,75.2,84,29.89,5.0,NW,3.5,-,N/A,,Mostly Cloudy,320,2013-09-02 19:00:00
2:30 AM,78.8,75.2,89,29.86,4.3,Calm,Calm,-,N/A,Rain,Light Rain,0,2013-09-02 19:30:00
3:00 AM,78.8,75.2,89,29.86,5.0,Calm,Calm,-,N/A,,Mostly Cloudy,0,2013-09-02 20:00:00
3:30 AM,78.8,75.2,89,29.86,5.0,Calm,Calm,-,N/A,,Mostly Cloudy,0,2013-09-02 20:30:00
4:00 AM,78.8,75.2,89,29.86,5.0,Calm,Calm,-,N/A,,Mostly Cloudy,0,2013-09-02 21:00:00
4:30 AM,77.0,73.4,89,29.86,5.0,Calm,Calm,-,N/A,,Mostly Cloudy,0,2013-09-02 21:30:00
6:00 AM,77.0,73.4,89,29.83,6.2,Calm,Calm,-,N/A,,Scattered Clouds,0,2013-09-02 23:00:00
6:30 AM,77.0,73.4,89,29.86,6.2,Calm,Calm,-,N/A,,Scattered Clouds,0,2013-09-02 23:30:00
7:00 AM,78,75,89,29.82,6,Calm,Calm,,,,Scattered Clouds,,2013-09-03 00:00:00
7:00 AM,77.0,75.2,94,29.86,6.2,Calm,Calm,-,N/A,,Scattered Clouds,0,2013-09-03 00:00:00
7:30 AM,80.6,77.0,89,29.89,6.2,Calm,Calm,-,N/A,,Scattered Clouds,0,2013-09-03 00:30:00
8:00 AM,82.4,75.2,79,29.89,6.2,Calm,Calm,-,N/A,,Mostly Cloudy,0,2013-09-03 01:00:00
8:30 AM,84.2,75.2,74,29.89,6.2,NW,3.5,-,N/A,,Scattered Clouds,310,2013-09-03 01:30:00
9:00 AM,84.2,75.2,74,29.89,6.2,WNW,5.8,-,N/A,,Scattered Clouds,300,2013-09-03 02:00:00
9:30 AM,84.2,75.2,74,29.89,6.2,WNW,6.9,-,N/A,,Scattered Clouds,290,2013-09-03 02:30:00
10:00 AM,84.2,75.2,74,29.89,6.2,WNW,8.1,-,N/A,,Scattered Clouds,300,2013-09-03 03:00:00
10:30 AM,86.0,75.2,70,29.92,6.2,WNW,9.2,-,N/A,,Scattered Clouds,300,2013-09-03 03:30:00
11:00 AM,84.2,75.2,74,29.89,6.2,WNW,8.1,-,N/A,,Scattered Clouds,290,2013-09-03 04:00:00
11:30 AM,86.0,73.4,66,29.89,6.2,West,9.2,-,N/A,,Scattered Clouds,280,2013-09-03 04:30:00
12:00 PM,86.0,75.2,70,29.89,6.2,West,10.4,-,N/A,,Scattered Clouds,270,2013-09-03 05:00:00
12:30 PM,87.8,75.2,66,29.89,6.2,West,11.5,-,N/A,,Scattered Clouds,270,2013-09-03 05:30:00
1:00 PM,87,77,64,29.84,6,West,9.2,,,,Scattered Clouds,280,2013-09-03 06:00:00
1:00 PM,86.0,75.2,70,29.86,6.2,West,11.5,-,N/A,,Scattered Clouds,280,2013-09-03 06:00:00
1:30 PM,86.0,75.2,70,29.86,6.2,West,10.4,-,N/A,,Scattered Clouds,270,2013-09-03 06:30:00
2:00 PM,86.0,75.2,70,29.83,6.2,West,10.4,-,N/A,,Scattered Clouds,270,2013-09-03 07:00:00
2:30 PM,86.0,75.2,70,29.83,6.2,West,10.4,-,N/A,,Scattered Clouds,270,2013-09-03 07:30:00
3:00 PM,86.0,75.2,70,29.80,6.2,West,10.4,-,N/A,,Scattered Clouds,270,2013-09-03 08:00:00
3:30 PM,87.8,75.2,66,29.80,6.2,West,11.5,-,N/A,,Scattered Clouds,270,2013-09-03 08:30:00
4:00 PM,86.0,75.2,70,29.80,6.2,West,12.7,-,N/A,,Scattered Clouds,280,2013-09-03 09:00:00
4:30 PM,86.0,75.2,70,29.80,6.2,West,12.7,-,N/A,,Scattered Clouds,280,2013-09-03 09:30:00
5:00 PM,86.0,75.2,70,29.77,6.2,West,13.8,-,N/A,,Scattered Clouds,280,2013-09-03 10:00:00
5:30 PM,84.2,73.4,70,29.77,6.2,West,13.8,-,N/A,,Scattered Clouds,280,2013-09-03 10:30:00
6:00 PM,84.2,73.4,70,29.80,6.2,West,13.8,-,N/A,,Scattered Clouds,280,2013-09-03 11:00:00
6:30 PM,84.2,75.2,74,29.80,6.2,WNW,9.2,-,N/A,,Scattered Clouds,290,2013-09-03 11:30:00
7:00 PM,85,76,69,29.77,6,West,4.6,,,,Scattered Clouds,280,2013-09-03 12:00:00
7:00 PM,82.4,73.4,74,29.80,5.6,West,9.2,-,N/A,,Mostly Cloudy,280,2013-09-03 12:00:00
7:30 PM,82.4,73.4,74,29.83,5.6,WNW,8.1,-,N/A,,Mostly Cloudy,290,2013-09-03 12:30:00
8:00 PM,82.4,73.4,74,29.83,5.6,West,9.2,-,N/A,,Mostly Cloudy,280,2013-09-03 13:00:00
8:30 PM,82.4,75.2,79,29.86,6.2,West,6.9,-,N/A,,Mostly Cloudy,280,2013-09-03 13:30:00
9:00 PM,82.4,73.4,74,29.89,6.2,WNW,6.9,-,N/A,,Mostly Cloudy,290,2013-09-03 14:00:00
9:30 PM,82.4,73.4,74,29.89,6.2,WNW,8.1,-,N/A,,Mostly Cloudy,300,2013-09-03 14:30:00
10:00 PM,82.4,73.4,74,29.89,6.2,WNW,6.9,-,N/A,,Mostly Cloudy,290,2013-09-03 15:00:00
10:30 PM,82.4,75.2,79,29.89,6.2,WNW,11.5,-,N/A,,Mostly Cloudy,290,2013-09-03 15:30:00
11:00 PM,82.4,75.2,79,29.89,6.2,WNW,5.8,-,N/A,,Mostly Cloudy,300,2013-09-03 16:00:00
11:30 PM,82.4,75.2,79,29.89,6.2,WNW,6.9,-,N/A,,Mostly Cloudy,300,2013-09-03 16:30:00